Regional Weather Roundup
Issued by NWS

Home | Current Version | Previous Version | Graphics & Text | Print | Product List | Glossary On
Versions: 1 2 3 4 5 6 7 8 9 10 11 12 13 14 15 16 17 18 19 20 21 22 23 24 25 26 27 28 29 30 31 32 33 34 35 36 37 38 39 40 41 42 43 44 45 46 47 48 49 50
690
ASUS43 KLMK 060702
RWRKY
KENTUCKY REGIONAL WEATHER ROUNDUP
NATIONAL WEATHER SERVICE LOUISVILLE KY
200 AM EST TUE DEC 06 2016

NOTE "FAIR" INDICATES FEW OR NO CLOUDS BELOW 12,000 FEET
WITH NO SIGNIFICANT WEATHER AND/OR OBSTRUCTIONS TO VISIBILITY.

KYZ001>023-026-027-061>063-070>075-060800-
WESTERN AND SOUTH CENTRAL KENTUCKY

CITY           SKY/WX    TMP DP  RH WIND       PRES   REMARKS
PADUCAH        LGT RAIN  41  39  93 NE7       29.71F FOG
HENDERSON      CLOUDY    43  36  75 NE8       29.75F
OWENSBORO      LGT RAIN  43  40  89 NE6       29.75F
HOPKINSVILLE   DRIZZLE   45  45 100 E5        29.70F FOG
BOWLING GREEN  LGT RAIN  46  44  93 NE3       29.75F
GLASGOW        NOT AVBL
$$

KYZ024-025-028>034-038-045-046-053-060800-
NORTH CENTRAL KENTUCKY

CITY           SKY/WX    TMP DP  RH WIND       PRES   REMARKS
LOUISVILLE/SDF LGT RAIN  44  38  79 E3        29.79F
LOUISVILLE/LOU LGT RAIN  44  38  79 E5        29.79F
FORT KNOX      MIX PCPN  43  38  85 NE7       29.74F
$$

KYZ035>037-039>044-047>052-055>060-089>105-060800-
NORTHEAST KENTUCKY

CITY           SKY/WX    TMP DP  RH WIND       PRES   REMARKS
LEXINGTON      LGT RAIN  44  36  73 E12       29.79F
COVINGTON      CLOUDY    39  33  79 E13       29.81F WCI  31
FRANKFORT      LGT RAIN  43  36  76 E8        29.79F
$$

KYZ054-064>069-076>088-106>120-060800-
SOUTHEAST KENTUCKY

CITY           SKY/WX    TMP DP  RH WIND       PRES   REMARKS
JACKSON        CLOUDY    44  36  73 NE5       29.79F
LONDON         LGT RAIN  47  39  74 E5        29.78F
SOMERSET       NOT AVBL
MIDDLESBORO    CLOUDY    52  46  81 CALM      29.81F
MONTICELLO     LGT RAIN  48  45  89 SE5       29.76F
$$





USA.gov is the U.S. government's official web portal to all federal, state and local government web resources and services.